Location: Newark
(30.0333°N, 31.2167°E)
Time: 16:37:41
(UTC+00:00)

Transit 4A - All Passes

Search period start: 22 January 2020 00:00
Search period end: 01 February 2020 00:00
Orbit: 871 x 973 km, 66.8° (Epoch: 22 January)

Date Brightness Start Highest point End Pass type
(mag) Time Alt. Az. Time Alt. Az. Time Alt. Az.
22 Jan - 03:50:13 10° S 03:55:44 36° ESE 04:01:09 10° NE visible
22 Jan - 05:36:55 10° WSW 05:42:02 28° WNW 05:47:06 10° N daylight
22 Jan - 13:00:38 10° NNE 13:03:29 14° NE 13:06:19 10° E daylight
22 Jan - 14:44:31 10° NNW 14:50:21 75° WSW 14:56:14 10° SSE daylight
23 Jan - 03:58:58 10° S 04:04:57 58° ESE 04:10:48 10° NE visible
23 Jan - 05:47:32 10° W 05:51:35 18° NW 05:55:37 10° NNW daylight
23 Jan - 13:08:45 10° N 13:13:06 21° NE 13:17:28 10° ESE daylight
23 Jan - 14:54:03 10° NW 14:59:35 46° WSW 15:05:11 10° S daylight
24 Jan - 04:08:06 10° SSW 04:14:14 89° WNW 04:20:13 10° NNE visible
24 Jan - 05:59:13 10° WNW 06:01:15 12° NW 06:03:17 10° NNW daylight
24 Jan - 13:17:26 10° N 13:22:37 33° ENE 13:27:50 10° ESE daylight
24 Jan - 15:03:51 10° NW 15:08:46 28° WSW 15:13:43 10° SSW daylight
25 Jan - 02:34:08 10° SE 02:37:44 16° ESE 02:41:18 10° ENE visible
25 Jan - 04:17:34 10° SW 04:23:34 57° WNW 04:29:25 10° NNE visible
25 Jan - 13:26:22 10° NNW 13:32:02 51° ENE 13:37:45 10° SE daylight
25 Jan - 15:14:11 10° WNW 15:17:53 17° WSW 15:21:37 10° SW daylight
26 Jan - 02:41:53 10° SSE 02:46:52 27° ESE 02:51:45 10° NE visible
26 Jan - 04:27:25 10° SW 04:32:58 37° WNW 04:38:26 10° N daylight
26 Jan - 13:35:32 10° NNW 13:41:23 82° ENE 13:47:18 10° SSE daylight
27 Jan - 02:50:20 10° S 02:56:03 43° ESE 03:01:38 10° NE visible
27 Jan - 04:37:41 10° WSW 04:42:28 24° WNW 04:47:11 10° N daylight
27 Jan - 12:00:25 10° NNE 12:03:56 16° NE 12:07:28 10° E daylight
27 Jan - 13:44:54 10° NNW 13:50:40 63° WSW 13:56:30 10° SSE daylight
28 Jan - 02:59:14 10° SSW 03:05:17 69° ESE 03:11:12 10° NNE visible
28 Jan - 04:48:34 10° W 04:52:04 16° NW 04:55:31 10° NNW daylight
28 Jan - 12:08:48 10° N 12:13:31 25° ENE 12:18:16 10° ESE daylight
28 Jan - 13:54:31 10° NW 13:59:53 39° WSW 14:05:19 10° S daylight
29 Jan - 01:27:11 10° ESE 01:28:56 11° ESE 01:30:40 10° E visible
29 Jan - 03:08:29 10° SSW 03:14:34 77° WNW 03:20:32 10° NNE visible
29 Jan - 12:17:36 10° N 12:23:00 38° ENE 12:28:27 10° SE daylight
29 Jan - 14:04:28 10° NW 14:09:02 24° WSW 14:13:40 10° SSW daylight
30 Jan - 01:33:49 10° SSE 01:38:01 20° ESE 01:42:09 10° ENE visible
30 Jan - 03:18:05 10° SW 03:23:56 48° WNW 03:29:41 10° NNE visible
30 Jan - 12:26:38 10° NNW 12:32:24 61° ENE 12:38:14 10° SE daylight
30 Jan - 14:15:09 10° WNW 14:18:09 14° WSW 14:21:11 10° SW daylight
31 Jan - 01:41:53 10° SSE 01:47:10 31° ESE 01:52:20 10° NE visible
31 Jan - 03:28:04 10° WSW 03:33:22 31° WNW 03:38:36 10° N visible
31 Jan - 10:52:34 10° NNE 10:54:45 12° NE 10:56:56 10° ENE daylight
31 Jan - 12:35:52 10° NNW 12:41:43 85° WSW 12:47:39 10° SSE daylight
